Tracking 28790 objects as of 19-Apr-2024
HD Live streaming from Space Station
objects crossing your sky now

STARLINK-1739

Track STARLINK-1739 now!
10-day predictions
STARLINK-1739 is classified as:


NORAD ID: 46363
Int'l Code: 2020-062AQ
Perigee: 552.7 km
Apogee: 555.9 km
Inclination: 53.1 °
Period: 95.6 minutes
Semi major axis: 6925 km
RCS: Unknown
Launch date: September 3, 2020
Source: United States (US)
Launch site: AIR FORCE EASTERN TEST RANGE (AFETR)
Your satellite tracking list
Your tracking list is empty




NASA's NSSDC Master Catalog

Two Line Element Set (TLE):
1 46363U 20062AQ  24109.49669208  .00025790  00000-0  17436-2 0  9998
2 46363  53.0534 189.9994 0002289  75.1931 284.9312 15.06407374201065
Source of the keplerian elements: AFSPC